{"data":{"norad_id":64597,"epoch":"2026-09-20T10:09:21.436992Z","epoch_age_seconds":138204,"freshness":"FRESH","line1":"1 64597U 25137D   26263.42316478  .00023734  00000+0  71084-3 0  9994","line2":"2 64597  53.1580 149.7121 0001096  74.7887 285.3236 15.34423202 70560","mean_motion":15.34423202,"eccentricity":0.0001096,"inclination_deg":53.158,"raan_deg":149.7121,"arg_perigee_deg":74.7887,"mean_anomaly_deg":285.3236,"bstar":0.00071084,"rev_number":7056,"period_min":93.846339010194,"perigee_km":461.8845313102,"apogee_km":463.38402837475,"semimajor_km":6840.7712798425,"source":"CELESTRAK","updated_at":"2026-09-21T09:00:35.364268Z"}}